Hourly Weather Roundup
Issued by NWS Central Illinois

Home | Current Version | Previous Version | Text Only | Print | Product List | Glossary On
Versions: 1 2 3 4 5 6 7 8 9 10 11 12 13 14 15 16 17 18 19 20 21 22 23 24 25 26 27 28 29 30 31 32 33 34 35 36 37 38 39 40 41 42 43 44 45 46 47 48 49 50
000
NZUS43 KILX 130710
HWRILX

AREA WEATHER ROUNDUP
NATIONAL WEATHER SERVICE, LINCOLN IL
100 AM CST SAT FEB 13 2016


CITY           SKY/WX    TMP DP  RH WIND       PRES   REMARKS
BLOOMINGTON    PTCLDY     9   0  67 N9        30.50R WCI  -4
CHAMPAIGN      CLEAR     11   2  67 NW15      30.48R WCI  -5
DANVILLE       CLEAR     10   0  64 N12       30.44R WCI  -4
DECATUR        CLEAR     12   1  61 NW17G24   30.51R WCI  -5
EFFINGHAM      CLEAR     15   6  66 NW12G18   30.53R WCI   2
FLORA          CLEAR     18   5  56 N16       30.52R WCI   3
GALESBURG      CLEAR      7  -2  67 NW8       30.58R WCI  -6
JACKSONVILLE   PTCLDY    14   4  67 NW10      30.58R WCI   1
LACON          PTCLDY     9  -6  49 N9        30.54S WCI  -4
LAWRENCEVILLE  CLEAR     16   5  62 N14       30.49R WCI   2
LITCHFIELD     PTCLDY    13   3  65 N22       30.54R WCI  -6
$$


CITY           SKY/WX    TMP DP  RH WIND       PRES   REMARKS
LINCOLN        CLEAR     11   2  67 NW8       30.54R WCI  -1
MACOMB         CLEAR      9   1  68 N15       30.60R WCI  -7
MATTOON        CLEAR     12   3  67 NW15      30.48R WCI  -4
MT CARMEL AP   CLEAR     18   5  57 N15G21    30.49R WCI   3
OLNEY-NOBLE AP CLEAR     18   5  57 NW16G22   30.51R WCI   3
PARIS          CLEAR     13   5  70 NW13G21   30.48R WCI  -2
PEORIA         CLEAR      9  -3  58 NW8       30.55R WCI  -3
PONTIAC        PTCLDY    10  -2  57 N15       30.52R WCI  -6
RANTOUL        PTCLDY    13   2  62 N12       30.48R WCI  -1
ROBINSON       CLEAR     15   5  65 N13G20    30.50R WCI   1
SPRINGFIELD    CLEAR     12  -1  56 N12       30.56R WCI  -2
TAYLORVILLE    CLEAR     12   3  67 N16G22    30.55R WCI  -4
$$

...REGIONAL REPORTS...


CITY           SKY/WX    TMP DP  RH WIND       PRES   REMARKS
CHICAGO O`HARE CLEAR      5 -11  47 N13G24    30.48R WCI -12
KANKAKEE       PTCLDY     9  -8  46 NW13G18   30.49R WCI  -6
MOLINE         CLEAR      8  -6  52 NW9       30.59R WCI  -5
MOUNT STERLING PTCLDY     9   1  69 NW13      30.57S WCI  -7
MOUNT VERNON   PTCLDY    18   1  49 N7        30.51S WCI   8
PITTSFIELD     PTCLDY    11   3  69 NW8       30.58S WCI   0
QUINCY         CLOUDY     8   0  69 NW10      30.58R WCI  -6
ROCKFORD       CLEAR      6 -11  45 N16       30.55R WCI -12
$$


CITY           SKY/WX    TMP DP  RH WIND       PRES   REMARKS
BURLINGTON     MOCLDY     8  -1  66 N13       30.60R WCI  -8
CEDAR RAPIDS   CLOUDY     4  -4  69 N12       30.59R WCI -12
DES MOINES     CLOUDY     4  -4  69 NW6       30.64S WCI  -7
KIRKSVILLE     CLOUDY     9  -1  64 N10       30.61R WCI  -5
OTTUMWA        CLOUDY     5   0  79 NW13      30.62S WCI -12
ST LOUIS       CLEAR     17   3  54 N13       30.56R WCI   4
$$


CITY           SKY/WX    TMP DP  RH WIND       PRES   REMARKS
TERRE HAUTE    CLEAR     15   4  61 NW12G20   30.46R WCI   2
EVANSVILLE     CLEAR     21   4  47 N14G23    30.49R WCI   8
INDIANAPOLIS   PTCLDY    14  -1  51 NW14      30.39R WCI  -1
LAFAYETTE      CLEAR     10  -5  50 NW15      30.45R WCI  -7
MADISON        CLEAR      1 -14  49 NW9       30.51R WCI -14
MILWAUKEE      CLEAR      3 -12  49 NW10      30.48R WCI -12
$$





USA.gov is the U.S. government's official web portal to all federal, state and local government web resources and services.